Presure
274 324 298 359 358 337 328 328 327 325 334 336 325 307 319 320 320 313 329 342 307 340 263 226 211 197 191 165 179 180 194 177 145 174 159 172 158 146 140 147 146 143 149 140 137
127 257 342 366 357 367 451 443 401 356 324 325 333 325 315 307 316 298 308 333 345 346 313 245 208 208 194 188 160 177 197 167 178 128 155 165 171 166 151 145 142 155 149 143 133
269 322 362 373 395 493 486 477 484 559 465 383 321 335 317 310 313 293 298 305 331 317 297 278 221 204 205 189 184 157 177 176 170 168 150 172 160 168 167 155 147 144 140 132 146
143 320 362 385 502 495 508 494 482 481 458 505 512 323 329 315 305 294 281 312 305 331 304 306 270 209 221 202 208 174 164 181 173 195 173 147 158 158 158 170 158 164 151 115 141
152 321 352 418 474 467 457 447 436 453 450 480 480 463 343 327 305 311 308 285 314 332 315 306 254 238 196 221 202 186 190 161 191 181 187 171 135 170 160 155 167 167 144 145 152
304 321 373 509 470 445 445 423 423 435 429 448 457 459 426 330 313 310 300 268 287 304 322 339 306 275 228 208 223 176 196 186 164 189 114 182 163 144 165 164 157 161 165 160 143
328 321 528 491 461 452 438 426 424 408 415 424 423 442 439 343 322 306 299 283 280 294 318 320 287 299 266 227 221 225 180 194 160 166 197 182 184 173 149 155 170 160 162 163 162
331 324 532 483 456 446 451 465 448 424 406 406 422 420 425 421 331 310 276 293 299 285 291 324 302 327 273 235 231 231 219 201 196 169 61 163 177 192 172 160 158 164 167 162 161
222 325 441 510 482 476 454 442 434 451 402 408 419 419 412 427 402 326 307 261 285 295 281 294 287 312 301 260 236 228 220 208 187 189 195 172 67 128 191 161 162 162 160 161 163
326 339 386 518 516 490 468 463 451 432 422 406 409 420 433 431 435 379 322 299 275 275 287 282 295 317 330 288 260 227 225 214 216 183 187 184 144 189 167 180 174 166 143 140 162
324 335 341 389 458 480 492 461 437 442 444 437 443 456 466 457 456 453 369 326 300 275 279 299 305 302 316 306 289 237 226 230 201 209 189 191 209 161 193 188 176 174 187 176 139
154 331 327 365 439 432 433 443 445 450 446 462 442 458 467 447 442 440 427 364 327 313 271 282 287 323 313 346 311 281 237 231 229 216 204 194 180 177 172 157 189 188 177 182 178
333 316 322 348 368 396 415 421 393 371 379 367 348 342 335 365 391 394 400 398 389 305 329 266 282 294 330 313 348 278 274 236 235 224 215 200 200 179 168 206 180 161 188 185 190
325 312 324 320 349 388 426 390 350 344 329 330 322 326 296 300 308 322 303 311 293 313 309 284 271 314 298 332 371 352 269 266 241 224 224 207 200 208 193 169 163 159 158 196 176
153 331 310 307 330 331 316 368 346 346 339 355 331 325 312 302 296 284 297 300 281 295 297 350 314 268 283 288 369 362 280 254 255 236 229 226 211 201 202 194 184 170 166 157 154
340 321 303 308 307 293 333 310 340 354 345 325 310 321 331 297 279 278 276 280 291 291 318 295 328 311 285 310 304 356 361 269 265 254 232 226 225 212 205 200 196 196 181 172 170
319 319 319 293 245 278 323 319 324 334 317 322 340 320 306 292 282 272 271 266 267 279 308 294 276 338 331 320 303 349 348 342 264 263 251 229 226 220 220 190 200 195 195 196 186
346 330 300 313 200 292 309 312 306 304 313 297 302 304 298 291 285 283 280 270 275 283 293 294 311 302 362 333 309 325 327 330 296 270 260 253 232 226 215 219 216 198 189 192 197
338 250 238 298 290 202 278 318 314 301 296 301 291 295 291 279 284 280 279 273 276 269 280 294 296 296 296 320 316 325 334 331 318 281 266 259 251 233 219 221 222 219 204 200 193
193 331 319 233 311 271 234 279 298 309 299 288 278 294 287 286 276 278 279 274 284 279 279 278 280 290 285 305 310 316 309 329 318 310 285 263 245 255 237 222 220 222 223 220 210
203 280 330 140 304 298 215 281 273 283 288 303 290 289 279 289 277 275 271 259 265 270 278 276 273 279 288 293 261 295 303 321 321 305 287 269 260 243 247 239 225 205 221 223 221
372 250 335 306 185 304 297 290 279 274 267 289 285 281 281 283 272 267 284 262 282 262 271 276 277 276 273 275 298 297 303 307 314 296 297 269 266 254 250 221 236 233 221 214 215
376 349 168 320 300 299 280 292 276 278 272 265 260 262 284 277 279 278 271 269 265 270 255 258 263 264 274 276 273 280 290 304 293 302 282 287 273 258 252 246 224 222 232 242 252
280 299 300 311 313 308 301 298 286 279 273 267 262 260 256 290 287 282 278 277 278 284 267 262 279 269 271 273 260 263 268 285 291 286 295 274 283 279 271 250 241 232 230 233 224
365 344 333 176 314 300 297 273 293 283 281 274 263 261 261 264 282 282 286 283 284 276 307 277 274 271 270 268 276 277 257 257 272 283 277 289 291 277 265 265 259 255 254 225 222
145 360 330 326 313 308 294 283 297 286 281 277 271 269 263 260 256 286 274 294 287 284 288 288 274 273 276 272 280 271 286 256 257 259 272 281 270 257 266 266 262 265 268 259 260
376 337 340 304 212 310 294 291 284 290 287 281 277 273 272 266 263 271 287 275 271 272 278 283 287 297 307 272 268 269 294 276 252 251 253 254 270 246 253 259 257 257 251 251 249
Wind_Speed
71 71 69 59 54 54 55 54 52 54 56 58 59 57 59 62 66 70 65 62 90 93 118 117 115 108 106 83 95 97 110 102 77 101 89 98 95 84 73 82 85 77 76 81 71
69 74 71 63 61 60 64 64 65 64 62 63 65 66 64 67 69 70 73 64 66 85 103 122 115 115 109 107 81 90 107 93 111 67 88 92 95 97 94 83 79 89 79 83 63
74 79 73 69 65 47 47 47 45 27 67 75 71 71 72 72 70 72 78 79 74 90 87 118 118 111 114 104 98 76 96 106 97 97 78 97 84 94 97 87 88 80 69 69 81
69 82 79 78 34 30 25 21 20 23 39 31 43 75 77 76 76 82 83 81 85 78 101 110 126 114 125 113 119 87 93 107 100 116 105 74 83 83 85 95 94 90 88 64 77
71 85 83 61 31 25 18 16 19 16 16 21 34 57 85 77 82 77 80 88 81 72 88 103 97 131 100 125 116 102 110 88 114 107 111 102 69 96 88 78 89 90 89 79 88
86 88 83 22 19 21 14 18 19 14 16 15 28 39 70 84 86 81 87 90 89 87 83 68 108 123 131 116 124 101 117 110 81 113 51 109 89 67 91 87 84 90 92 90 80
91 89 29 16 20 18 15 18 16 19 16 16 23 30 47 92 85 83 86 94 92 90 78 87 110 114 127 131 123 125 102 115 78 92 123 108 106 106 73 76 99 89 89 90 91
91 91 26 23 24 23 21 12 20 19 19 21 24 32 38 59 91 90 95 94 85 91 91 73 100 96 126 130 131 125 121 113 110 95 8 90 101 115 104 86 82 92 95 89 89
78 92 63 26 21 15 12 9 4 11 17 16 16 26 41 44 72 93 92 92 94 87 93 91 105 103 117 128 130 122 116 114 103 112 117 92 18 62 116 90 93 91 87 87 91
97 92 80 46 28 19 11 9 6 8 12 17 18 23 30 40 50 89 89 91 88 96 89 96 96 84 91 122 127 120 120 115 120 101 110 101 70 106 84 110 111 99 68 64 92
95 91 87 76 54 47 31 16 13 10 6 9 10 14 15 26 33 48 87 84 85 97 94 70 85 96 85 90 114 125 123 122 114 117 110 108 119 75 114 113 104 100 114 114 69
61 88 87 73 54 53 49 39 30 24 22 22 39 35 28 25 25 32 50 79 78 78 96 95 86 62 82 62 109 117 128 121 122 115 111 113 101 94 87 78 113 114 102 111 111
82 86 81 72 65 53 46 42 51 63 71 74 70 64 55 49 46 40 38 41 56 73 63 84 86 79 55 84 74 113 114 120 120 119 117 113 114 96 87 116 98 78 111 109 112
80 82 73 73 64 45 35 56 46 50 43 58 57 66 37 49 51 47 48 36 50 45 57 83 88 64 75 54 50 72 111 117 121 117 120 111 109 113 109 87 77 75 74 108 94
57 64 72 70 59 56 58 50 40 48 59 56 57 51 60 56 50 45 36 39 53 46 57 44 53 76 76 73 49 61 107 112 119 125 117 117 109 110 112 110 102 87 82 75 73
59 64 66 61 59 62 46 51 36 48 49 39 37 51 60 55 46 45 41 37 27 32 29 53 41 54 62 58 66 58 62 108 114 121 113 115 116 110 110 109 106 106 97 87 87
67 59 50 61 71 60 39 42 33 28 29 45 43 38 44 45 40 35 37 39 40 28 21 37 56 32 37 45 53 55 62 77 110 112 117 112 112 112 110 95 108 105 105 106 100
49 46 54 40 69 45 36 34 33 21 28 25 36 40 40 36 32 31 32 36 29 22 20 22 21 29 22 35 43 51 59 73 96 105 109 114 114 112 107 109 110 105 99 100 102
51 68 41 45 45 70 42 28 28 21 18 17 15 25 31 21 31 30 30 33 30 31 21 24 23 25 28 34 42 47 52 62 77 95 101 105 108 110 111 111 111 110 107 107 101
86 43 35 44 25 38 52 30 22 21 15 16 16 8 13 20 15 24 22 17 22 21 22 23 24 27 30 28 32 39 46 52 70 81 90 97 102 101 109 111 109 111 110 108 106
75 53 27 55 27 25 54 22 24 19 16 12 14 13 10 18 14 16 13 11 14 15 20 22 24 25 23 24 25 34 34 35 59 72 84 88 91 94 97 105 111 95 108 110 107
26 59 23 22 49 19 18 14 17 15 17 11 9 6 5 10 12 11 16 14 22 17 20 21 21 24 24 25 21 22 27 36 39 65 73 84 86 90 95 99 101 108 110 102 100
23 23 52 18 22 20 26 13 17 13 10 9 10 9 1 3 9 14 15 17 19 22 20 22 22 23 23 19 20 19 23 30 37 52 69 76 85 87 88 91 98 101 100 91 77
32 23 25 25 16 15 15 14 12 12 12 7 7 5 6 4 11 14 18 22 25 31 25 25 34 28 27 29 28 26 23 25 33 42 53 69 65 73 81 88 92 95 97 87 102
31 23 19 31 14 16 17 22 15 15 12 11 11 7 6 6 3 9 16 21 25 25 34 33 33 33 31 27 27 30 32 32 31 42 44 46 54 65 68 75 85 91 91 95 97
42 18 20 18 17 13 16 18 17 17 16 15 13 13 11 11 11 6 10 16 20 18 24 30 31 29 37 30 34 26 28 41 38 34 34 43 47 55 55 64 68 63 61 67 70
28 21 19 24 38 15 16 16 17 17 19 19 18 16 14 14 13 11 11 13 13 14 14 20 23 26 33 38 26 20 23 38 42 39 38 38 41 58 55 55 54 52 54 58 63
Wind_Direction
336 339 334 322 312 304 295 284 272 261 253 244 235 228 222 218 216 216 214 207 211 210 209 212 216 215 216 221 219 218 215 214 224 220 222 222 219 231 234 231 232 237 234 238 240
339 340 334 323 317 307 282 273 265 257 251 242 237 226 220 218 214 218 215 208 206 212 211 210 216 216 215 217 222 220 212 217 216 235 223 224 220 223 228 231 235 232 236 240 244
341 343 335 331 323 288 280 274 268 265 249 236 234 228 220 215 212 213 213 213 209 210 210 209 215 218 215 219 219 222 215 215 220 222 229 224 223 224 225 227 233 237 237 241 243
344 344 340 335 307 301 293 277 274 269 247 247 239 225 221 214 210 209 213 209 213 205 211 209 209 217 216 217 217 218 220 217 220 219 223 227 224 225 228 227 228 230 234 238 242
344 348 345 335 307 306 299 279 273 273 248 229 228 227 218 213 210 205 205 214 211 202 208 210 213 212 220 217 217 218 216 225 217 221 221 225 233 226 228 228 230 231 235 238 239
352 351 348 316 302 314 296 288 281 267 252 228 220 219 218 210 209 203 205 213 211 210 205 205 210 210 215 219 216 218 217 220 222 218 222 223 227 228 229 229 230 232 234 236 242
356 353 349 338 339 317 304 284 247 264 242 219 210 215 217 209 208 203 204 209 212 210 205 205 211 210 212 217 219 216 221 219 221 225 221 225 224 226 230 231 230 234 235 237 238
357 356 4 355 341 333 315 300 230 226 226 223 211 203 204 210 205 204 209 203 205 209 211 207 210 212 211 215 219 218 218 219 219 224 204 226 226 224 227 232 235 235 236 238 240
351 358 5 7 351 346 350 349 292 227 219 218 208 204 205 205 207 204 203 214 204 204 211 212 212 211 211 214 217 220 219 218 222 221 223 229 229 228 225 230 233 237 240 241 242
359 360 6 29 17 2 349 354 347 232 215 208 207 198 198 203 202 205 205 200 208 208 207 213 214 215 214 213 216 219 222 220 221 224 225 226 231 227 230 227 230 234 242 244 244
359 359 3 13 40 42 47 50 45 62 147 189 198 196 194 185 191 201 205 205 199 207 208 209 217 216 217 216 213 217 221 221 222 222 224 227 225 228 228 229 232 234 236 238 246
352 358 2 14 46 49 50 53 64 78 92 107 104 105 119 133 160 173 186 202 203 202 213 214 216 214 217 217 212 215 221 221 224 224 223 226 230 231 230 233 232 234 236 239 241
358 359 2 12 22 42 56 63 90 94 98 101 101 98 92 96 107 117 148 181 195 204 210 218 219 218 216 218 217 216 215 223 223 224 225 226 227 230 230 230 233 236 237 240 242
358 359 1 7 21 33 76 99 98 103 101 109 115 117 138 124 116 122 154 165 185 193 205 214 221 218 221 219 219 217 217 220 223 225 225 226 227 229 232 235 235 236 239 238 244
354 359 360 3 16 24 27 107 96 108 116 117 122 121 131 130 134 149 143 179 197 198 205 203 214 222 224 223 214 215 216 222 222 225 227 228 227 230 231 234 238 240 240 240 242
357 359 359 2 9 11 40 40 81 102 109 117 115 126 129 136 154 159 168 167 154 186 156 208 207 222 224 226 226 214 217 221 222 225 227 229 230 231 232 235 237 239 243 245 248
355 357 359 359 0 4 32 47 61 90 97 99 116 123 135 148 159 173 185 199 206 202 152 206 216 205 212 225 227 216 216 218 223 226 227 231 232 233 235 234 238 240 242 242 245
355 353 354 1 0 8 25 39 58 53 99 91 111 122 132 144 151 166 179 199 205 188 158 183 162 203 196 206 218 218 219 219 221 225 228 229 233 234 236 238 237 240 243 246 246
353 355 352 359 356 359 4 47 67 67 63 99 92 136 152 165 161 172 181 195 200 205 195 172 174 192 206 201 212 223 223 220 219 222 227 230 232 234 236 238 241 241 242 245 248
353 350 349 354 356 360 1 8 40 83 84 70 73 145 164 171 178 186 200 206 191 204 205 202 204 208 217 214 222 229 226 225 219 217 223 229 231 232 234 239 241 244 246 246 246
354 349 344 351 344 348 356 5 6 30 52 97 87 108 152 197 205 206 220 203 227 232 229 226 224 218 216 218 228 228 234 233 223 220 219 226 231 233 233 236 240 243 246 248 250
332 346 334 340 348 335 337 355 1 11 17 64 59 60 114 162 185 204 212 211 209 228 234 237 238 232 232 229 225 217 225 231 227 220 222 224 225 229 232 236 238 241 245 248 250
322 329 337 332 336 330 337 328 342 340 4 10 14 26 233 222 207 214 222 226 229 225 236 235 236 235 235 232 228 223 222 221 223 225 222 224 223 230 233 234 238 242 245 245 246
333 326 321 324 315 309 306 301 311 316 323 336 339 341 326 224 230 228 225 229 231 233 234 239 241 240 240 227 222 221 218 223 221 225 227 226 225 226 228 232 236 240 242 243 251
334 322 307 342 296 307 305 314 286 295 292 300 313 304 295 282 256 239 227 231 234 235 234 237 237 244 248 234 237 222 218 216 224 228 227 227 227 229 228 229 233 237 241 245 247
344 289 298 280 290 282 294 304 274 281 277 276 275 274 281 279 287 241 236 225 220 231 237 238 241 241 239 244 246 222 234 212 216 220 226 229 220 225 228 231 237 240 242 242 243
321 295 277 304 333 268 284 283 287 272 268 272 271 268 260 256 272 277 234 229 225 229 235 236 236 240 240 236 228 217 221 214 213 211 215 219 222 226 230 232 234 234 238 239 239